TimeCST,TemperatureF,Dew PointF,Humidity,Sea Level PressureIn,VisibilityMPH,Wind Direction,Wind SpeedMPH,Gust SpeedMPH,PrecipitationIn,Events,Conditions,WindDirDegrees,DateUTC
12:15 AM,23.9,20.5,87,30.22,10.0,Calm,Calm,-,N/A,,Clear,0,2013-12-26 06:15:00
12:35 AM,24.4,20.3,84,30.21,10.0,Calm,Calm,-,N/A,,Clear,0,2013-12-26 06:35:00
12:55 AM,25.0,20.7,84,30.20,10.0,SSW,4.6,-,N/A,,Clear,200,2013-12-26 06:55:00
1:15 AM,25.3,20.7,82,30.19,10.0,SW,5.8,-,N/A,,Clear,220,2013-12-26 07:15:00
1:35 AM,26.1,20.8,81,30.18,10.0,SSW,8.1,-,N/A,,Clear,210,2013-12-26 07:35:00
1:55 AM,26.6,21.0,79,30.18,10.0,SSW,10.4,-,N/A,,Clear,210,2013-12-26 07:55:00
2:15 AM,27.1,21.0,78,30.17,10.0,SSW,8.1,-,N/A,,Clear,200,2013-12-26 08:15:00
2:35 AM,27.5,21.0,77,30.17,10.0,SSW,6.9,-,N/A,,Clear,210,2013-12-26 08:35:00
2:55 AM,27.7,20.8,75,30.16,10.0,SSW,6.9,-,N/A,,Clear,200,2013-12-26 08:55:00
3:15 AM,27.0,20.5,77,30.16,10.0,SW,3.5,-,N/A,,Clear,220,2013-12-26 09:15:00
3:35 AM,26.6,20.1,77,30.16,10.0,SSW,4.6,-,N/A,,Clear,200,2013-12-26 09:35:00
3:55 AM,26.6,20.5,78,30.15,10.0,SSW,4.6,-,N/A,,Clear,200,2013-12-26 09:55:00
4:15 AM,27.1,20.8,77,30.13,10.0,SSW,5.8,-,N/A,,Clear,210,2013-12-26 10:15:00
4:35 AM,26.6,21.0,79,30.12,10.0,SSW,5.8,-,N/A,,Clear,210,2013-12-26 10:35:00
4:55 AM,26.6,21.2,80,30.12,10.0,SW,3.5,-,N/A,,Clear,220,2013-12-26 10:55:00
5:15 AM,26.4,21.0,80,30.11,10.0,SSW,4.6,-,N/A,,Clear,200,2013-12-26 11:15:00
5:35 AM,25.7,20.5,81,30.10,10.0,South,4.6,-,N/A,,Clear,180,2013-12-26 11:35:00
5:55 AM,25.7,20.8,82,30.10,10.0,South,5.8,-,N/A,,Clear,180,2013-12-26 11:55:00
6:15 AM,24.6,20.3,84,30.09,10.0,South,4.6,-,N/A,,Clear,170,2013-12-26 12:15:00
6:35 AM,26.4,21.2,81,30.10,10.0,SSW,3.5,-,N/A,,Clear,200,2013-12-26 12:35:00
6:55 AM,25.5,20.8,82,30.09,10.0,South,6.9,-,N/A,,Clear,180,2013-12-26 12:55:00
7:15 AM,27.1,21.4,79,30.09,10.0,SSW,4.6,-,N/A,,Clear,210,2013-12-26 13:15:00
7:35 AM,28.9,21.9,75,30.09,10.0,SW,6.9,-,N/A,,Clear,220,2013-12-26 13:35:00
7:55 AM,28.8,21.7,75,30.08,10.0,SW,6.9,-,N/A,,Clear,220,2013-12-26 13:55:00
8:15 AM,28.6,21.7,76,30.10,10.0,SW,5.8,-,N/A,,Clear,220,2013-12-26 14:15:00
8:35 AM,27.5,21.6,78,30.10,10.0,SW,5.8,-,N/A,,Clear,220,2013-12-26 14:35:00
8:55 AM,27.9,21.9,78,30.10,10.0,SW,3.5,-,N/A,,Clear,230,2013-12-26 14:55:00
9:15 AM,29.8,23.4,77,30.11,10.0,NW,3.5,-,N/A,,Clear,320,2013-12-26 15:15:00
9:35 AM,30.7,24.1,76,30.12,10.0,Calm,Calm,-,N/A,,Clear,0,2013-12-26 15:35:00
9:55 AM,32.2,23.9,72,30.12,10.0,West,9.2,-,N/A,,Clear,280,2013-12-26 15:55:00
10:15 AM,32.2,24.6,74,30.13,10.0,West,6.9,-,N/A,,Clear,260,2013-12-26 16:15:00
10:35 AM,34.5,24.4,67,30.13,10.0,West,8.1,-,N/A,,Clear,260,2013-12-26 16:35:00
10:55 AM,34.3,24.6,68,30.13,10.0,West,9.2,-,N/A,,Clear,280,2013-12-26 16:55:00
11:15 AM,36.3,24.8,63,30.13,10.0,West,9.2,-,N/A,,Clear,280,2013-12-26 17:15:00
11:35 AM,37.9,25.2,60,30.13,10.0,WNW,6.9,-,N/A,,Clear,290,2013-12-26 17:35:00
11:55 AM,39.4,25.5,58,30.13,10.0,WNW,6.9,-,N/A,,Clear,290,2013-12-26 17:55:00
12:15 PM,40.6,25.7,55,30.12,10.0,West,5.8,-,N/A,,Clear,280,2013-12-26 18:15:00
12:35 PM,41.4,25.7,54,30.11,10.0,WSW,4.6,-,N/A,,Clear,240,2013-12-26 18:35:00
12:55 PM,42.4,25.5,51,30.11,10.0,WSW,5.8,-,N/A,,Clear,250,2013-12-26 18:55:00
1:15 PM,43.9,25.5,48,30.10,10.0,WSW,5.8,-,N/A,,Clear,250,2013-12-26 19:15:00
1:35 PM,44.2,25.3,47,30.10,10.0,WSW,4.6,-,N/A,,Clear,250,2013-12-26 19:35:00
1:55 PM,45.5,25.3,45,30.10,10.0,SW,4.6,-,N/A,,Clear,230,2013-12-26 19:55:00
2:15 PM,46.6,24.8,43,30.10,10.0,SW,5.8,-,N/A,,Clear,230,2013-12-26 20:15:00
2:35 PM,47.7,24.8,41,30.10,10.0,SW,5.8,-,N/A,,Clear,230,2013-12-26 20:35:00
2:55 PM,48.7,24.8,39,30.11,10.0,SW,8.1,-,N/A,,Clear,220,2013-12-26 20:55:00
3:15 PM,49.1,24.3,38,30.11,10.0,SW,8.1,-,N/A,,Clear,230,2013-12-26 21:15:00
3:35 PM,49.3,23.9,37,30.11,10.0,SW,6.9,-,N/A,,Clear,230,2013-12-26 21:35:00
3:55 PM,49.3,23.9,37,30.12,10.0,SW,4.6,-,N/A,,Clear,230,2013-12-26 21:55:00
4:15 PM,48.4,23.9,38,30.13,10.0,SW,3.5,-,N/A,,Clear,220,2013-12-26 22:15:00
4:35 PM,46.8,23.2,40,30.14,10.0,SW,5.8,-,N/A,,Clear,230,2013-12-26 22:35:00
4:55 PM,46.0,22.8,40,30.15,10.0,WSW,5.8,-,N/A,,Clear,250,2013-12-26 22:55:00
5:15 PM,40.8,21.9,47,30.16,10.0,West,4.6,-,N/A,,Clear,270,2013-12-26 23:15:00
5:35 PM,39.0,21.2,49,30.16,10.0,WSW,3.5,-,N/A,,Clear,250,2013-12-26 23:35:00
5:55 PM,36.5,21.4,54,30.16,10.0,WSW,4.6,-,N/A,,Clear,240,2013-12-26 23:55:00
6:15 PM,35.6,22.3,58,30.16,10.0,Calm,Calm,-,N/A,,Clear,0,2013-12-27 00:15:00
6:35 PM,35.8,23.0,60,30.18,10.0,Calm,Calm,-,N/A,,Clear,0,2013-12-27 00:35:00
6:55 PM,32.9,21.0,62,30.18,10.0,West,5.8,-,N/A,,Clear,260,2013-12-27 00:55:00
7:15 PM,37.0,21.9,54,30.18,10.0,West,4.6,-,N/A,,Clear,270,2013-12-27 01:15:00
7:35 PM,36.1,21.9,56,30.19,10.0,West,5.8,-,N/A,,Clear,270,2013-12-27 01:35:00
7:55 PM,34.0,21.7,61,30.19,10.0,West,4.6,-,N/A,,Clear,270,2013-12-27 01:55:00
8:15 PM,31.8,20.5,63,30.20,10.0,West,5.8,-,N/A,,Clear,280,2013-12-27 02:15:00
8:35 PM,32.0,20.7,63,30.20,10.0,West,3.5,-,N/A,,Clear,260,2013-12-27 02:35:00
8:55 PM,30.0,19.6,65,30.20,10.0,West,3.5,-,N/A,,Clear,260,2013-12-27 02:55:00
9:15 PM,29.5,20.7,70,30.21,10.0,Calm,Calm,-,N/A,,Clear,0,2013-12-27 03:15:00
9:35 PM,30.4,21.2,69,30.21,10.0,Calm,Calm,-,N/A,,Clear,0,2013-12-27 03:35:00
9:55 PM,29.3,21.4,72,30.22,10.0,West,3.5,-,N/A,,Clear,280,2013-12-27 03:55:00
10:15 PM,25.9,19.4,76,30.22,10.0,NW,4.6,-,N/A,,Clear,310,2013-12-27 04:15:00
10:35 PM,24.8,19.2,79,30.22,10.0,West,4.6,-,N/A,,Clear,280,2013-12-27 04:35:00
10:55 PM,25.9,19.9,78,30.23,10.0,Calm,Calm,-,N/A,,Clear,0,2013-12-27 04:55:00
11:15 PM,26.6,20.3,77,30.24,10.0,West,4.6,-,N/A,,Clear,260,2013-12-27 05:15:00
11:35 PM,24.4,19.8,82,30.25,10.0,West,4.6,-,N/A,,Clear,270,2013-12-27 05:35:00
11:55 PM,24.1,19.2,82,30.25,10.0,WNW,3.5,-,N/A,,Clear,290,2013-12-27 05:55:00